Miscellaneous Local Product
Issued by NWS North Platte, NE

Home | Current Version | Previous Version | Text Only | Print | Product List | Glossary On
Versions: 1 2 3 4 5 6 7 8 9 10 11 12 13 14 15 16 17 18 19 20 21 22 23 24 25 26 27 28 29 30 31 32 33 34 35 36 37 38 39 40 41 42 43 44 45 46 47 48 49 50
000
AXUS43 KLBF 251110
MISLBF


WESTERN AND NORTH CENTRAL NEBRASKA HOURLY WEATHER ROUNDUP
NATIONAL WEATHER SERVICE NORTH PLATTE NE
600 AM CDT THU MAY 25 2017

NOTE: "FAIR" INDICATES FEW OR NO CLOUDS BELOW 12,000 FEET WITH NO
SIGNIFICANT WEATHER AND/OR OBSTRUCTIONS TO VISIBILITY.

NOTE: STATIONS NOT REPORTING VARIABLES SUCH AS SKY/WEATHER OR
PRESSURE ARE PROVIDED BY RAWS AND APRS NETWORKS AND ARE NOT UNDER
NATIONAL WEATHER SERVICE QUALITY CONTROL.

...OBSERVATIONS IN AND NEAR THE EASTERN PANHANDLE OF NEBRASKA...

CITY           SKY/WX    TMP DP  RH WIND       PRES   REMARKS
PINE RIDGE     CLOUDY    51  49  92 CALM      29.48R
GORDON         FAIR      52  48  87 SW6       29.49R
CHADRON        CLOUDY    56  47  71 W3        29.50R
ALLIANCE       CLOUDY    53  47  79 NW9       29.51R
SIDNEY         PTCLDY    55  45  68 NW14      29.53R
CRESCENT LAKE    N/A     52  46  80 W7          N/A
$$

...OBSERVATIONS IN NORTHERN NEBRASKA AND FAR SOUTHERN SOUTH DAKOTA...

CITY           SKY/WX    TMP DP  RH WIND       PRES   REMARKS
WINNER         FAIR      55  45  68 S15       29.42R
VALENTINE      CLEAR     55  43  63 SW10      29.45R
THEDFORD       CLEAR     51  44  78 S22       29.46F
AINSWORTH      CLEAR     51  45  79 S21G30    29.43S
O`NEILL        CLOUDY    56  42  59 S21G28    29.51S
ORD            CLEAR     51  42  71 S12       29.53F
BROKEN BOW     CLEAR     50  44  80 S14       29.51F
VALENTINE NWR    N/A     51  43  73 S14G21      N/A
HALSEY           N/A     51  43  74 S7G18       N/A
BUTTE            N/A     52  44  75 S20G26      N/A
CHAMBERS         N/A     53  44  71 W5          N/A
EWING            N/A     53  45  75 S7          N/A
$$

...OBSERVATIONS IN SOUTHWEST NEBRASKA AND FAR NORTHEAST COLORADO...

CITY           SKY/WX    TMP DP  RH WIND       PRES   REMARKS
WRAY           FAIR      55  45  67 SW14G22   29.47F
IMPERIAL       CLEAR     54  45  71 S8        29.48R
OGALLALA       CLOUDY    48  46  90 E5        29.47F
NORTH PLATTE   CLOUDY    50  45  83 SE6       29.50S
MCCOOK         CLEAR     47  44  90 SE9       29.49F
LEXINGTON      CLEAR     51  44  76 SE9G17    29.53F
STAPLETON        N/A     46  43  88 CALM        N/A
GOTHENBURG       N/A     51  42  70 SE7         N/A
CALLAWAY         N/A     49  44  82 S22         N/A
$$

...OBSERVATIONS IN CENTRAL LINCOLN COUNTY AREA...

CITY           SKY/WX    TMP DP  RH WIND       PRES   REMARKS
N.P. AIRPORT   CLOUDY    50  45  83 SE6       29.50S
N.P. DOWNTOWN    N/A     50  45  83 CALM        N/A
N.P. SOUTHEAST   N/A     50  44  80 S3          N/A
N.P. HILLCREST   N/A     50  45  83 S3          N/A
$$

...SOME OBSERVATIONS FROM AROUND THE REGION...

CITY           SKY/WX    TMP DP  RH WIND       PRES   REMARKS
DENVER         MOCLDY    66  35  31 W14G26    29.60R
LIMON            N/A     46  45  96 CALM      29.61S
ASPEN          CLOUDY    51  34  52 VRB6      29.78R
LARAMIE        CLOUDY    42  38  85 W10       29.67F
CASPER         CLOUDY    47  43  86 N3        29.60R FOG
CHEYENNE       CLOUDY    53  41  63 W13       29.62F
SCOTTSBLUFF    PTCLDY    54  46  74 SW3       29.53S
GRAND ISLAND   CLOUDY    52  45  77 S10       29.59F
OMAHA          PTCLDY    50  45  83 SE7       29.65S
SIOUX FALLS    PTCLDY    51  46  83 SE13G21   29.58F
PIERRE         CLEAR     52  43  71 SE15G25   29.34R
RAPID CITY     PTCLDY    50  41  71 N9        29.45S
BISMARCK       CLOUDY    51  46  83 S7        29.42R
KANSAS CITY    PTCLDY    48  46  93 SE9       29.69S
HILL CITY      CLEAR     49  45  86 S5        29.56S
WICHITA        CLEAR     50  46  86 S8        29.65S
DODGE CITY     CLEAR     52  44  74 S17       29.57F
OKLAHOMA CITY  PTCLDY    55  46  71 SE15G23   29.67F
DALLAS         CLEAR     60  53  77 SE8       29.68S
AMARILLO       CLEAR     53  40  61 SW12      29.60S
$$




USA.gov is the U.S. government's official web portal to all federal, state and local government web resources and services.